FW0225 Weather Reports


Display with metric or nautical units.
time (UTC)temp
F
wind
direction
speed
MPH
gust
MPH
rain 1hr
in
rain 24hr
in
rain mn
in
humidity
%
barometer
mb
20200714024813 56 45 0.0 1.0 0.00 0.00 0.00 92 1017.9
20200714024319 56 45 0.0 2.0 0.00 0.00 0.00 92 1017.9
20200714023822 56 45 0.0 2.0 0.00 0.00 0.00 92 1018.0
20200714023329 56 42 0.0 1.0 0.00 0.00 0.00 91 1017.9
20200714022815 56 42 0.0 2.0 0.00 0.00 0.00 91 1018.1
20200714022320 56 42 1.0 2.0 0.00 0.00 0.00 91 1018.1
20200714021823 56 17 0.0 0.0 0.00 0.00 0.00 91 1018.1
20200714021327 56 17 0.0 1.0 0.00 0.00 0.00 91 1018.1
20200714020833 56 17 0.0 2.0 0.00 0.00 0.00 91 1018.1
20200714020316 56 17 0.0 3.0 0.00 0.00 0.00 90 1018.1
20200714015817 56 13 0.0 3.0 0.00 0.00 0.00 90 1018.1
20200714015323 56 44 1.0 3.0 0.00 0.00 0.00 90 1018.2
20200714014828 56 33 1.0 3.0 0.00 0.00 0.00 90 1018.2
20200714014312 56 36 2.0 4.0 0.00 0.00 0.00 91 1018.2
20200714013813 56 44 1.0 4.0 0.00 0.00 0.00 91 1018.3
20200714013323 56 43 1.0 3.0 0.00 0.00 0.00 91 1018.4
20200714012824 55 49 1.0 3.0 0.00 0.00 0.00 91 1018.3
20200714012330 55 23 0.0 4.0 0.00 0.00 0.00 91 1018.4
20200714011813 55 50 2.0 4.0 0.00 0.00 0.00 91 1018.4
20200714011320 55 28 1.0 3.0 0.00 0.00 0.00 91 1018.5
20200714010819 55 26 1.0 2.0 0.00 0.00 0.00 91 1018.5
20200714010325 55 34 0.0 2.0 0.00 0.00 0.00 92 1018.6
20200714005827 55 33 0.0 2.0 0.00 0.00 0.00 92 1018.6
20200714005315 55 61 1.0 2.0 0.00 0.00 0.00 92 1018.5
20200714004814 55 58 0.0 0.0 0.00 0.00 0.00 92 1018.6
20200714004320 56 58 0.0 0.0 0.00 0.00 0.00 92 1018.6
20200714003823 56 58 0.0 1.0 0.00 0.00 0.00 92 1018.6
20200714003328 56 58 0.0 1.0 0.00 0.00 0.00 92 1018.7
20200714002830 56 56 0.0 2.0 0.00 0.00 0.00 92 1018.7
20200714002317 56 56 0.0 2.0 0.00 0.00 0.00 92 1018.6
20200714001819 56 56 0.0 1.0 0.00 0.00 0.00 92 1018.6
20200714001325 56 56 0.0 1.0 0.00 0.00 0.00 92 1018.6
20200714000826 56 56 0.0 1.0 0.00 0.00 0.00 91 1018.7
20200714000312 56 56 0.0 1.0 0.00 0.00 0.00 91 1018.6
20200713235814 56 56 0.0 1.0 0.00 0.00 0.00 91 1018.6
20200713235318 56 56 0.0 1.0 0.00 0.00 0.00 91 1018.7
20200713235226 56 56 0.0 0.0 0.00 0.00 0.00 91 1018.6
20200713235153 56 56 0.0 1.0 0.00 0.00 0.00 91 1018.7
20200713233829 56 56 0.0 1.0 0.00 0.00 0.00 91 1018.6
20200713233313 56 56 0.0 1.0 0.00 0.00 0.00 91 1018.6
20200713232816 56 56 0.0 0.0 0.00 0.00 0.00 91 1018.6
20200713232319 57 56 0.0 0.0 0.00 0.00 0.00 91 1018.6
20200713231823 57 56 0.0 0.0 0.00 0.00 0.00 91 1018.6
20200713231326 57 56 0.0 1.0 0.00 0.00 0.00 91 1018.6
20200713230829 57 56 0.0 1.0 0.00 0.00 0.00 90 1018.7
20200713230316 57 56 0.0 1.0 0.00 0.00 0.00 90 1018.7
20200713225816 57 56 0.0 1.0 0.00 0.00 0.00 90 1018.7
20200713225320 57 56 0.0 1.0 0.00 0.00 0.00 90 1018.7
20200713224826 57 56 0.0 0.0 0.00 0.00 0.00 89 1018.7
20200713224312 58 56 0.0 1.0 0.00 0.00 0.00 89 1018.7
20200713223814 58 56 0.0 1.0 0.00 0.00 0.00 89 1018.7
20200713223319 58 56 0.0 0.0 0.00 0.00 0.00 89 1018.8
20200713222821 58 56 0.0 1.0 0.00 0.00 0.00 89 1018.7
20200713222328 58 56 0.0 1.0 0.00 0.00 0.00 89 1018.8
20200713221828 58 56 0.0 2.0 0.00 0.00 0.00 88 1018.7
20200713221313 58 56 0.0 2.0 0.00 0.00 0.00 87 1018.7
20200713220814 58 9 0.0 2.0 0.00 0.00 0.00 88 1018.7
20200713220410 59 360 0.0 0.0 0.00 0.00 0.00 88 1018.7
20200713215810 59 360 0.0 1.0 0.00 0.00 0.00 87 1018.7
20200713214933 59 360 0.0 0.0 0.00 0.00 0.00 87 1018.7
20200713214314 59 360 0.0 1.0 0.00 0.00 0.00 87 1018.7
20200713213816 59 360 0.0 1.0 0.00 0.00 0.00 86 1018.6
20200713213324 60 360 0.0 2.0 0.00 0.00 0.00 85 1018.7
20200713212827 60 360 0.0 2.0 0.00 0.00 0.00 86 1018.7
20200713212313 60 360 0.0 1.0 0.00 0.00 0.00 84 1018.7
20200713211813 60 360 0.0 2.0 0.00 0.00 0.00 85 1018.8
20200713211318 60 355 0.0 1.0 0.00 0.00 0.00 85 1018.7
20200713210820 60 360 0.0 2.0 0.00 0.00 0.00 85 1018.7
20200713210309 60 333 0.0 0.0 0.00 0.00 0.00 85 1018.7
20200713205811 60 333 0.0 0.0 0.00 0.00 0.00 86 1018.6
20200713205315 60 332 0.0 0.0 0.00 0.00 0.00 85 1018.6
20200713204817 60 268 0.0 0.0 0.00 0.00 0.00 86 1018.6
20200713204323 60 268 0.0 0.0 0.00 0.00 0.00 86 1018.5
20200713203828 60 270 0.0 0.0 0.00 0.00 0.00 86 1018.5
20200713203312 60 270 0.0 0.0 0.00 0.00 0.00 86 1018.4
20200713202813 61 270 0.0 0.0 0.00 0.00 0.00 86 1018.5
20200713202319 61 270 0.0 0.0 0.00 0.00 0.00 85 1018.5
20200713201821 61 270 0.0 0.0 0.00 0.00 0.00 85 1018.5
20200713201328 61 270 0.0 0.0 0.00 0.00 0.00 85 1018.4
20200713200814 61 270 0.0 0.0 0.00 0.00 0.00 84 1018.4
20200713200321 61 270 0.0 0.0 0.00 0.00 0.00 84 1018.5
20200713195822 62 270 0.0 0.0 0.00 0.00 0.00 83 1018.4
20200713195327 62 270 0.0 0.0 0.00 0.00 0.00 83 1018.3
20200713194810 62 270 0.0 0.0 0.00 0.00 0.00 82 1018.2
20200713194315 62 270 0.0 0.0 0.00 0.00 0.00 82 1018.2
20200713193816 63 270 0.0 0.0 0.00 0.00 0.00 82 1018.2
20200713193322 63 270 0.0 0.0 0.00 0.00 0.00 81 1018.2
20200713192820 63 270 0.0 0.0 0.00 0.00 0.00 81 1018.2
20200713192329 63 270 0.0 0.0 0.00 0.00 0.00 79 1018.1
20200713191828 64 270 0.0 0.0 0.00 0.00 0.00 78 1018.0
20200713191319 64 270 0.0 0.0 0.00 0.00 0.00 75 1018.0
20200713190822 64 270 0.0 0.0 0.00 0.00 0.00 77 1017.9
20200713190330 65 270 0.0 0.0 0.00 0.00 0.00 76 1017.9
20200713185832 65 270 0.0 0.0 0.00 0.00 0.00 76 1017.8
20200713185312 65 270 0.0 0.0 0.00 0.00 0.00 75 1017.7
20200713184812 65 270 0.0 0.0 0.00 0.00 0.00 74 1017.7
20200713184320 66 270 0.0 0.0 0.00 0.00 0.00 75 1017.6
20200713183820 66 270 0.0 0.0 0.00 0.00 0.00 73 1017.5
20200713183323 66 270 0.0 0.0 0.00 0.00 0.00 73 1017.4
20200713182826 67 270 0.0 0.0 0.00 0.00 0.00 74 1017.4
20200713182312 67 270 0.0 0.0 0.00 0.00 0.00 74 1017.4
20200713181819 67 270 0.0 0.0 0.00 0.00 0.00 72 1017.3
20200713181322 68 270 0.0 1.0 0.00 0.00 0.00 75 1017.4
20200713180824 68 270 0.0 1.0 0.00 0.00 0.00 71 1017.3
20200713180333 68 270 0.0 1.0 0.00 0.00 0.00 72 1017.2
20200713175810 68 270 0.0 1.0 0.00 0.00 0.00 73 1017.2
20200713175316 69 270 0.0 1.0 0.00 0.00 0.00 70 1017.1
20200713174820 69 270 1.0 1.0 0.00 0.00 0.00 72 1017.0
20200713174324 69 270 0.0 1.0 0.00 0.00 0.00 73 1017.0
20200713173827 69 270 1.0 1.0 0.00 0.00 0.00 71 1017.0
20200713173311 70 270 0.0 1.0 0.00 0.00 0.00 70 1017.1
20200713172814 70 270 0.0 2.0 0.00 0.00 0.00 72 1017.0
20200713172318 70 270 0.0 2.0 0.00 0.00 0.00 71 1017.0
20200713171818 70 270 0.0 2.0 0.00 0.00 0.00 72 1016.9
20200713171322 70 270 0.0 1.0 0.00 0.00 0.00 70 1017.0
20200713170825 71 270 0.0 2.0 0.00 0.00 0.00 72 1017.0
20200713170311 71 270 0.0 2.0 0.00 0.00 0.00 71 1017.0
20200713165812 71 270 0.0 2.0 0.00 0.00 0.00 71 1017.0
20200713165317 71 270 0.0 1.0 0.00 0.00 0.00 73 1017.0
20200713164818 71 270 0.0 2.0 0.00 0.00 0.00 68 1016.9
20200713164326 72 270 1.0 2.0 0.00 0.00 0.00 69 1016.9
20200713163826 72 270 2.0 2.0 0.00 0.00 0.00 67 1016.9
20200713163310 72 271 0.0 0.0 0.00 0.00 0.00 67 1016.9
20200713162817 72 271 0.0 0.0 0.00 0.00 0.00 69 1016.9
20200713162322 73 271 0.0 4.0 0.00 0.00 0.00 67 1017.0
20200713161823 73 270 1.0 4.0 0.00 0.00 0.00 61 1017.0
20200713161327 73 355 2.0 3.0 0.00 0.00 0.00 64 1017.0
20200713160829 74 275 1.0 2.0 0.00 0.00 0.00 61 1017.0
20200713160314 74 275 1.0 2.0 0.00 0.00 0.00 62 1017.1
20200713155814 75 275 0.0 3.0 0.00 0.00 0.00 61 1017.1
20200713155324 75 275 2.0 3.0 0.00 0.00 0.00 57 1017.1
20200713154824 76 294 1.0 3.0 0.00 0.00 0.00 55 1017.2
20200713154327 77 273 2.0 3.0 0.00 0.00 0.00 49 1017.2
20200713153826 77 294 1.0 4.0 0.00 0.00 0.00 45 1017.3
20200713153313 78 304 2.0 4.0 0.00 0.00 0.00 47 1017.2
20200713152817 79 315 1.0 3.0 0.00 0.00 0.00 49 1017.3
20200713152320 80 355 1.0 5.0 0.00 0.00 0.00 46 1017.4
20200713151822 80 328 2.0 6.0 0.00 0.00 0.00 38 1017.5
20200713151326 80 115 2.0 7.0 0.00 0.00 0.00 41 1017.5
20200713150827 80 47 1.0 7.0 0.00 0.00 0.00 37 1017.5
20200713150313 81 267 2.0 9.0 0.00 0.00 0.00 40 1017.6
20200713145811 81 76 1.0 12.0 0.00 0.00 0.00 36 1017.6
20200713145319 81 49 2.0 12.0 0.00 0.00 0.00 37 1017.6
20200713144827 81 58 2.0 7.0 0.00 0.00 0.00 38 1017.6
20200713144325 81 305 1.0 3.0 0.00 0.00 0.00 45 1017.6
20200713143810 81 51 1.0 4.0 0.00 0.00 0.00 38 1017.8
20200713143317 80 98 1.0 6.0 0.00 0.00 0.00 37 1017.8
20200713142820 80 17 4.0 9.0 0.00 0.00 0.00 35 1017.9
20200713142322 80 24 3.0 9.0 0.00 0.00 0.00 37 1018.0
20200713141823 81 24 4.0 9.0 0.00 0.00 0.00 37 1018.0
20200713141328 81 40 4.0 9.0 0.00 0.00 0.00 38 1018.0
20200713140832 82 290 1.0 4.0 0.00 0.00 0.00 45 1017.9
20200713140313 82 325 1.0 3.0 0.00 0.00 0.00 40 1018.0
20200713135814 81 269 1.0 5.0 0.00 0.00 0.00 41 1018.0
20200713135320 81 55 1.0 5.0 0.00 0.00 0.00 38 1018.1
20200713134821 81 227 2.0 5.0 0.00 0.00 0.00 36 1018.1
20200713134310 81 105 2.0 9.0 0.00 0.00 0.00 36 1018.2
20200713133815 81 47 1.0 9.0 0.00 0.00 0.00 38 1018.2
20200713133319 81 335 4.0 9.0 0.00 0.00 0.00 36 1018.3
20200713132822 81 80 3.0 11.0 0.00 0.00 0.00 36 1018.2
20200713132327 81 63 3.0 12.0 0.00 0.00 0.00 39 1018.2
20200713131829 81 94 1.0 8.0 0.00 0.00 0.00 37 1018.2
20200713131317 81 86 3.0 8.0 0.00 0.00 0.00 35 1018.4
20200713130815 81 101 2.0 8.0 0.00 0.00 0.00 36 1018.3
20200713130321 81 251 3.0 9.0 0.00 0.00 0.00 39 1018.4
20200713125824 81 189 2.0 10.0 0.00 0.00 0.00 41 1018.4
20200713125328 81 75 4.0 10.0 0.00 0.00 0.00 39 1018.4
20200713124810 81 60 3.0 6.0 0.00 0.00 0.00 37 1018.5
20200713124315 81 86 2.0 7.0 0.00 0.00 0.00 37 1018.6
20200713123852 81 5 3.0 9.0 0.00 0.00 0.00 36 1018.8
20200713123320 81 33 3.0 8.0 0.00 0.00 0.00 37 1018.8
20200713122821 81 49 1.0 9.0 0.00 0.00 0.00 34 1018.8
20200713122326 82 80 4.0 9.0 0.00 0.00 0.00 36 1019.0
20200713121829 82 57 4.0 6.0 0.00 0.00 0.00 36 1018.9
20200713121315 82 121 2.0 7.0 0.00 0.00 0.00 36 1018.9
20200713120817 82 20 2.0 5.0 0.00 0.00 0.00 40 1019.0
20200713120322 81 38 2.0 6.0 0.00 0.00 0.00 36 1019.1
20200713115823 81 15 3.0 9.0 0.00 0.00 0.00 38 1019.2
20200713115313 81 130 5.0 10.0 0.00 0.00 0.00 36 1019.2
20200713114816 81 30 6.0 10.0 0.00 0.00 0.00 39 1019.3
20200713114321 80 70 1.0 9.0 0.00 0.00 0.00 35 1019.3
20200713113822 80 303 4.0 9.0 0.00 0.00 0.00 34 1019.4
20200713113328 80 55 2.0 8.0 0.00 0.00 0.00 36 1019.4
20200713112829 80 79 4.0 10.0 0.00 0.00 0.00 35 1019.5
20200713112316 80 38 5.0 10.0 0.00 0.00 0.00 36 1019.5
20200713111818 80 86 3.0 10.0 0.00 0.00 0.00 37 1019.7
20200713111323 80 100 5.0 10.0 0.00 0.00 0.00 36 1019.7
20200713110825 80 70 1.0 10.0 0.00 0.00 0.00 34 1019.8
20200713110328 80 65 2.0 10.0 0.00 0.00 0.00 43 1019.9
20200713105828 80 87 4.0 12.0 0.00 0.00 0.00 38 1020.0
20200713105319 80 98 5.0 11.0 0.00 0.00 0.00 35 1020.0
20200713104820 80 48 4.0 8.0 0.00 0.00 0.00 34 1020.0
20200713104327 79 74 3.0 8.0 0.00 0.00 0.00 35 1020.2
20200713103827 79 19 2.0 9.0 0.00 0.00 0.00 37 1020.2
20200713103329 79 344 4.0 12.0 0.00 0.00 0.00 35 1020.3
20200713102829 79 74 3.0 12.0 0.00 0.00 0.00 37 1020.4
20200713102315 78 78 4.0 9.0 0.00 0.00 0.00 35 1020.5
20200713101832 78 305 3.0 10.0 0.00 0.00 0.00 37 1020.5
20200713101317 78 34 3.0 11.0 0.00 0.00 0.00 40 1020.5
20200713100815 78 57 4.0 11.0 0.00 0.00 0.00 32 1020.5
20200713100321 78 45 3.0 8.0 0.00 0.00 0.00 38 1020.6
20200713095826 78 63 3.0 10.0 0.00 0.00 0.00 44 1020.6
20200713095313 78 58 5.0 11.0 0.00 0.00 0.00 40 1020.6
20200713094815 78 304 4.0 11.0 0.00 0.00 0.00 41 1020.7
20200713094327 78 95 4.0 11.0 0.00 0.00 0.00 36 1020.6
20200713093823 78 32 6.0 11.0 0.00 0.00 0.00 36 1020.8
20200713093327 78 52 4.0 9.0 0.00 0.00 0.00 37 1020.8
20200713092829 77 62 3.0 11.0 0.00 0.00 0.00 38 1020.9
20200713092314 77 34 5.0 11.0 0.00 0.00 0.00 40 1020.9
20200713091815 77 5 4.0 11.0 0.00 0.00 0.00 39 1020.9
20200713091320 77 53 3.0 10.0 0.00 0.00 0.00 42 1021.0
20200713090822 76 195 3.0 10.0 0.00 0.00 0.00 39 1021.1
20200713090330 76 25 4.0 13.0 0.00 0.00 0.00 40 1021.1
20200713085811 76 50 4.0 13.0 0.00 0.00 0.00 42 1021.2
20200713085319 76 51 4.0 12.0 0.00 0.00 0.00 39 1021.1
20200713084823 77 65 6.0 11.0 0.00 0.00 0.00 37 1021.2
20200713084405 76 326 3.0 12.0 0.00 0.00 0.00 44 1021.3
20200713083827 76 77 5.0 12.0 0.00 0.00 0.00 43 1021.4
20200713083312 76 53 4.0 11.0 0.00 0.00 0.00 44 1021.4
20200713082815 76 48 6.0 11.0 0.00 0.00 0.00 41 1021.5
20200713082320 76 55 5.0 11.0 0.00 0.00 0.00 41 1021.5
20200713081823 76 27 4.0 9.0 0.00 0.00 0.00 45 1021.5
20200713081313 76 325 4.0 12.0 0.00 0.00 0.00 43 1021.5
20200713080817 76 322 7.0 12.0 0.00 0.00 0.00 42 1021.6
20200713080323 76 63 4.0 10.0 0.00 0.00 0.00 43 1021.6
20200713075824 75 38 3.0 8.0 0.00 0.00 0.00 46 1021.6
20200713075329 75 98 2.0 9.0 0.00 0.00 0.00 52 1021.7
20200713074812 75 72 2.0 10.0 0.00 0.00 0.00 47 1021.6
20200713074317 74 40 5.0 10.0 0.00 0.00 0.00 48 1021.7
20200713073821 74 59 5.0 11.0 0.00 0.00 0.00 50 1021.7
20200713073326 73 17 6.0 11.0 0.00 0.00 0.00 52 1021.8
20200713072828 73 22 3.0 16.0 0.00 0.00 0.00 51 1021.9
20200713072314 72 296 4.0 16.0 0.00 0.00 0.00 55 1021.8
20200713071820 72 40 4.0 9.0 0.00 0.00 0.00 57 1021.8
20200713071326 71 65 3.0 9.0 0.00 0.00 0.00 60 1021.7
20200713070826 71 71 3.0 9.0 0.00 0.00 0.00 61 1021.8
20200713070330 70 5 5.0 10.0 0.00 0.00 0.00 61 1021.9
20200713065816 70 77 5.0 9.0 0.00 0.00 0.00 62 1022.0
20200713065317 70 45 6.0 10.0 0.00 0.00 0.00 62 1022.0
20200713064820 70 59 5.0 10.0 0.00 0.00 0.00 63 1022.1
20200713064325 69 38 4.0 9.0 0.00 0.00 0.00 64 1022.1
20200713063827 69 65 4.0 9.0 0.00 0.00 0.00 66 1022.1
20200713063312 69 84 2.0 3.0 0.00 0.00 0.00 69 1022.2
20200713062812 68 98 1.0 2.0 0.00 0.00 0.00 69 1022.3
20200713062324 68 71 1.0 2.0 0.00 0.00 0.00 69 1022.3
20200713061820 67 71 1.0 2.0 0.00 0.00 0.00 69 1022.4
20200713061326 67 68 1.0 2.0 0.00 0.00 0.00 71 1022.4
20200713060827 66 68 1.0 2.0 0.00 0.00 0.00 71 1022.4
20200713060315 66 67 0.0 2.0 0.00 0.00 0.00 71 1022.4
20200713055814 66 67 1.0 3.0 0.00 0.00 0.00 72 1022.4
20200713055319 66 80 1.0 3.0 0.00 0.00 0.00 72 1022.4
20200713054823 66 92 1.0 5.0 0.00 0.00 0.00 72 1022.4
20200713054329 65 288 1.0 5.0 0.00 0.00 0.00 73 1022.4
20200713053830 65 30 1.0 4.0 0.00 0.00 0.00 72 1022.4
20200713053314 64 57 2.0 7.0 0.00 0.00 0.00 74 1022.5
20200713052823 63 42 2.0 7.0 0.00 0.00 0.00 75 1022.6
20200713052326 63 309 1.0 6.0 0.00 0.00 0.00 77 1022.6
20200713051826 62 37 3.0 6.0 0.00 0.00 0.00 78 1022.7
20200713051311 61 64 3.0 5.0 0.00 0.00 0.00 80 1022.7
20200713050812 60 32 2.0 4.0 0.00 0.00 0.00 83 1022.7
20200713050317 58 30 1.0 4.0 0.00 0.00 0.00 88 1022.7
20200713045821 57 41 1.0 3.0 0.00 0.00 0.00 90 1022.7
20200713045326 56 33 0.0 3.0 0.00 0.00 0.00 92 1022.7
20200713044828 56 59 0.0 2.0 0.00 0.00 0.00 92 1022.7
20200713044319 56 59 1.0 2.0 0.00 0.00 0.00 93 1022.7
20200713043818 55 34 0.0 2.0 0.00 0.00 0.00 94 1022.8
20200713043327 55 34 0.0 3.0 0.00 0.00 0.00 94 1022.7
20200713042829 54 26 1.0 2.0 0.00 0.00 0.00 94 1022.7
20200713042316 54 26 0.0 0.0 0.00 0.00 0.00 94 1022.7
20200713041820 54 26 0.0 0.0 0.00 0.00 0.00 93 1022.8
20200713041328 54 26 0.0 1.0 0.00 0.00 0.00 93 1022.7
20200713040829 54 26 0.0 1.0 0.00 0.00 0.00 93 1022.6
20200713040314 54 26 0.0 1.0 0.00 0.00 0.00 93 1022.6
20200713035813 54 26 0.0 1.0 0.00 0.00 0.00 93 1022.6
20200713035319 54 26 0.0 1.0 0.00 0.00 0.00 93 1022.6
20200713034822 54 26 0.0 1.0 0.00 0.00 0.00 93 1022.6
20200713034312 54 26 0.0 1.0 0.00 0.00 0.00 93 1022.6
20200713033816 54 26 0.0 0.0 0.00 0.00 0.00 93 1022.6
20200713033324 54 26 0.0 0.0 0.00 0.00 0.00 93 1022.5
20200713032824 54 26 0.0 1.0 0.00 0.00 0.00 93 1022.5
20200713032311 54 26 0.0 1.0 0.00 0.00 0.00 93 1022.6
20200713031815 54 26 0.0 0.0 0.00 0.00 0.00 92 1022.5
20200713031321 54 26 0.0 1.0 0.00 0.00 0.00 92 1022.6
20200713030825 54 26 0.0 1.0 0.00 0.00 0.00 92 1022.6
20200713030329 54 26 0.0 1.0 0.00 0.00 0.00 92 1022.6
20200713025832 55 26 0.0 1.0 0.00 0.00 0.00 92 1022.5
20200713025317 55 26 0.0 0.0 0.00 0.00 0.00 92 1022.6